NOZ1098 ENBR-EKCH

Flight info

Callsign NOZ1098
Flight time N/A
Altitude 37000
Route ENBR/35 N0440F370 TUXI4D TUXIL DCT ZOL DCT TESPI TESP4A EKCH/04L
Aircraft B738/M-SDE2E3FGHIRWXY/LB1

Departure

Time 2026-04-27 21:31
Airport Bergen Airport, Flesland (ENBR)

Arrival

Time N/A
Airport Copenhagen Kastrup Airport (EKCH)
Time Latitude Longitude Altitude Speed Heading
2026-04-27 21:16 60.28934 5.22539 174 ft 0 kts 108°
2026-04-27 21:23 60.28935 5.22529 174 ft 2 kts 107°
2026-04-27 21:24 60.28941 5.22497 174 ft 2 kts 109°
2026-04-27 21:24 60.28946 5.22466 174 ft 2 kts 111°
2026-04-27 21:24 60.28953 5.22435 174 ft 2 kts 114°
2026-04-27 21:24 60.28960 5.22406 174 ft 2 kts 123°
2026-04-27 21:25 60.28971 5.22381 174 ft 2 kts 153°
2026-04-27 21:25 60.28982 5.22374 174 ft 1 kts 167°
2026-04-27 21:25 60.28983 5.22373 174 ft 0 kts 167°
2026-04-27 21:26 60.28981 5.22374 174 ft 1 kts 168°
2026-04-27 21:26 60.28962 5.22377 174 ft 5 kts 183°
2026-04-27 21:26 60.28927 5.22314 172 ft 10 kts 222°
2026-04-27 21:27 60.28837 5.22311 170 ft 16 kts 168°
2026-04-27 21:27 60.28717 5.22355 168 ft 20 kts 170°
2026-04-27 21:27 60.28566 5.22400 165 ft 24 kts 171°
2026-04-27 21:27 60.28389 5.22460 160 ft 24 kts 170°
2026-04-27 21:28 60.28230 5.22513 155 ft 19 kts 171°
2026-04-27 21:28 60.28099 5.22546 151 ft 15 kts 187°
2026-04-27 21:28 60.28057 5.22453 151 ft 0 kts 256°
2026-04-27 21:29 60.28057 5.22448 151 ft 1 kts 256°
2026-04-27 21:29 60.28053 5.22419 151 ft 3 kts 258°
2026-04-27 21:29 60.28050 5.22375 152 ft 3 kts 264°
2026-04-27 21:30 60.28054 5.22307 152 ft 7 kts 288°
2026-04-27 21:30 60.28103 5.22231 152 ft 12 kts 344°
2026-04-27 21:30 60.28205 5.22189 153 ft 22 kts 349°
2026-04-27 21:30 60.28450 5.22109 156 ft 48 kts 350°
2026-04-27 21:31 60.28873 5.21964 163 ft 79 kts 350°
2026-04-27 21:31 60.29674 5.21699 146 ft 155 kts 351°
2026-04-27 21:31 60.30885 5.21253 557 ft 191 kts 348°
2026-04-27 21:31 60.32240 5.20593 1309 ft 209 kts 345°
2026-04-27 21:32 60.33704 5.19844 1975 ft 222 kts 347°
2026-04-27 21:32 60.35263 5.19253 2562 ft 234 kts 351°
2026-04-27 21:32 60.36909 5.18702 3162 ft 247 kts 351°
2026-04-27 21:32 60.38654 5.18155 3613 ft 257 kts 351°
2026-04-27 21:33 60.40447 5.17649 4072 ft 263 kts 352°
2026-04-27 21:33 60.42245 5.17200 4586 ft 256 kts 353°
2026-04-27 21:33 60.44025 5.16777 5271 ft 262 kts 352°
2026-04-27 21:33 60.45835 5.16206 6075 ft 265 kts 348°
2026-04-27 21:34 60.47484 5.14597 6794 ft 266 kts 317°
2026-04-27 21:34 60.48513 5.11546 7554 ft 272 kts 289°
2026-04-27 21:34 60.48718 5.07746 8326 ft 275 kts 265°
2026-04-27 21:34 60.48426 5.03897 9139 ft 278 kts 257°
2026-04-27 21:35 60.47539 5.00391 9886 ft 284 kts 228°
2026-04-27 21:35 60.45931 4.98096 10655 ft 288 kts 200°
2026-04-27 21:35 60.43952 4.97483 11435 ft 291 kts 178°
2026-04-27 21:35 60.41929 4.97832 12232 ft 294 kts 174°
2026-04-27 21:36 60.39880 4.98320 13007 ft 298 kts 173°
2026-04-27 21:36 60.37806 4.98821 13812 ft 301 kts 174°
2026-04-27 21:36 60.35711 4.99303 14580 ft 304 kts 174°
2026-04-27 21:36 60.33602 4.99763 15298 ft 306 kts 174°
2026-04-27 21:37 60.31474 5.00211 16049 ft 308 kts 174°
2026-04-27 21:37 60.29340 5.00654 16810 ft 309 kts 174°